TimePST,TemperatureF,Dew PointF,Humidity,Sea Level PressureIn,VisibilityMPH,Wind Direction,Wind SpeedMPH,Gust SpeedMPH,PrecipitationIn,Events,Conditions,WindDirDegrees,DateUTC
12:53 AM,32.0,28.9,88,30.46,7.0,West,3.5,-,N/A,,Mostly Cloudy,280,2013-02-24 08:53:00
1:53 AM,30.0,28.0,92,30.46,8.0,Calm,Calm,-,N/A,,Mostly Cloudy,0,2013-02-24 09:53:00
2:53 AM,30.0,27.0,88,30.45,7.0,Calm,Calm,-,N/A,,Clear,0,2013-02-24 10:53:00
3:53 AM,26.1,25.0,96,30.46,2.0,Calm,Calm,-,N/A,,Clear,0,2013-02-24 11:53:00
4:09 AM,26.6,24.8,93,30.43,4.0,Calm,Calm,-,N/A,,Clear,0,2013-02-24 12:09:00
4:53 AM,28.0,26.1,92,30.46,6.0,Calm,Calm,-,N/A,,Clear,0,2013-02-24 12:53:00
5:53 AM,26.1,24.1,92,30.47,6.0,Calm,Calm,-,N/A,,Clear,0,2013-02-24 13:53:00
6:09 AM,26.6,24.8,93,30.44,7.0,Calm,Calm,-,N/A,,Scattered Clouds,0,2013-02-24 14:09:00
6:53 AM,26.1,24.1,92,30.47,5.0,Calm,Calm,-,N/A,,Scattered Clouds,0,2013-02-24 14:53:00
6:59 AM,26.6,24.8,93,30.43,5.0,Calm,Calm,-,N/A,,Mostly Cloudy,0,2013-02-24 14:59:00
7:53 AM,28.0,26.1,92,30.48,4.0,Calm,Calm,-,N/A,,Overcast,0,2013-02-24 15:53:00
8:05 AM,28.4,26.6,93,30.44,1.8,Calm,Calm,-,N/A,,Overcast,0,2013-02-24 16:05:00
8:14 AM,28.4,26.6,93,30.44,0.2,Calm,Calm,-,N/A,Fog,Light Freezing Fog,0,2013-02-24 16:14:00
8:29 AM,28.4,28.4,100,30.43,1.0,Calm,Calm,-,N/A,,Overcast,0,2013-02-24 16:29:00
8:53 AM,28.9,28.9,100,30.47,1.0,Calm,Calm,-,N/A,,Overcast,0,2013-02-24 16:53:00
9:00 AM,30.2,28.4,93,30.43,5.0,Calm,Calm,-,N/A,,Overcast,0,2013-02-24 17:00:00
9:53 AM,33.1,30.0,89,30.45,5.0,Calm,Calm,-,N/A,,Mostly Cloudy,0,2013-02-24 17:53:00
10:37 AM,35.6,30.2,81,30.40,8.0,North,3.5,-,N/A,,Scattered Clouds,350,2013-02-24 18:37:00
10:53 AM,37.0,30.0,76,30.43,10.0,Calm,Calm,-,N/A,,Partly Cloudy,0,2013-02-24 18:53:00
11:53 AM,42.1,30.9,65,30.39,10.0,Calm,Calm,-,0.01,,Clear,0,2013-02-24 19:53:00
12:53 PM,45.0,30.0,56,30.36,10.0,Variable,4.6,-,N/A,,Partly Cloudy,0,2013-02-24 20:53:00
1:53 PM,48.0,30.9,52,30.34,10.0,NNW,4.6,-,N/A,,Clear,330,2013-02-24 21:53:00
2:53 PM,51.1,30.9,46,30.31,10.0,Calm,Calm,-,N/A,,Clear,0,2013-02-24 22:53:00
3:53 PM,50.0,30.9,48,30.29,10.0,Calm,Calm,-,N/A,,Clear,0,2013-02-24 23:53:00
4:53 PM,50.0,30.9,48,30.27,10.0,Calm,Calm,-,N/A,,Clear,0,2013-02-25 00:53:00
5:53 PM,48.0,30.9,52,30.26,10.0,WSW,3.5,-,N/A,,Clear,240,2013-02-25 01:53:00
6:53 PM,43.0,33.1,68,30.26,10.0,South,6.9,-,N/A,,Clear,180,2013-02-25 02:53:00
7:53 PM,43.0,33.1,68,30.25,10.0,SSW,3.5,-,N/A,,Clear,200,2013-02-25 03:53:00
8:53 PM,37.0,30.9,79,30.25,10.0,NE,3.5,-,N/A,,Clear,40,2013-02-25 04:53:00
9:53 PM,37.0,32.0,82,30.25,10.0,ENE,3.5,-,N/A,,Clear,70,2013-02-25 05:53:00
10:53 PM,39.0,32.0,76,30.25,10.0,NW,3.5,-,N/A,,Mostly Cloudy,310,2013-02-25 06:53:00
11:53 PM,39.0,34.0,82,30.25,10.0,East,3.5,-,N/A,,Overcast,80,2013-02-25 07:53:00